IZ1VWE-3 Weather Reports


time (UTC)temp
C
wind
direction
speed
KPH
gust
KPH
rain 1hr
cm
rain 24hr
cm
rain mn
cm
humidity
%
barometer
mb
20260503171041 20 0.0 0.0 0.00 0.00 0.00 43 1015.7
20260503131037 23 0.0 0.0 0.00 0.00 0.00 33 1015.3
20260503081032 23 0.0 0.0 0.00 0.00 0.00 34 1017.7
20260503071031 21 0.0 0.0 0.00 0.00 0.00 28 1017.8
20260503055030 14 0.0 0.0 0.00 0.00 0.00 40 1017.9
20260503053030 13 0.0 0.0 0.00 0.00 0.00 42 1017.8
20260503051029 12 0.0 0.0 0.00 0.00 0.00 43 1017.5
20260503045029 11 0.0 0.0 0.00 0.00 0.00 45 1017.5
20260503043029 11 0.0 0.0 0.00 0.00 0.00 46 1017.4
20260503041028 10 0.0 0.0 0.00 0.00 0.00 47 1017.4
20260503035028 10 0.0 0.0 0.00 0.00 0.00 47 1017.4
20260503033028 11 0.0 0.0 0.00 0.00 0.00 46 1017.5
20260503031027 11 0.0 0.0 0.00 0.00 0.00 46 1017.6
20260503025027 11 0.0 0.0 0.00 0.00 0.00 46 1017.7
20260503023027 11 0.0 0.0 0.00 0.00 0.00 46 1017.8
20260503021026 11 0.0 0.0 0.00 0.00 0.00 47 1017.8
20260503015026 11 0.0 0.0 0.00 0.00 0.00 47 1017.8
20260503013026 11 0.0 0.0 0.00 0.00 0.00 47 1017.9
20260503011025 11 0.0 0.0 0.00 0.00 0.00 47 1018.0
20260503005025 11 0.0 0.0 0.00 0.00 0.00 47 1018.1
20260503003025 11 0.0 0.0 0.00 0.00 0.00 47 1018.2
20260503001025 11 0.0 0.0 0.00 0.00 0.00 47 1018.4
20260502235024 11 0.0 0.0 0.00 0.00 0.00 47 1018.5
20260502233024 12 0.0 0.0 0.00 0.00 0.00 46 1018.6
20260502231024 13 0.0 0.0 0.00 0.00 0.00 43 1016.7
20260502225023 13 0.0 0.0 0.00 0.00 0.00 43 1018.9
20260502223023 12 0.0 0.0 0.00 0.00 0.00 44 1018.9
20260502221023 13 0.0 0.0 0.00 0.00 0.00 44 1019.1
20260502215022 13 0.0 0.0 0.00 0.00 0.00 43 1019.3
20260502213022 13 0.0 0.0 0.00 0.00 0.00 39 1019.2
20260502211022 14 0.0 0.0 0.00 0.00 0.00 38 1019.3
20260502205021 15 0.0 0.0 0.00 0.00 0.00 39 1019.3
20260502203021 14 0.0 0.0 0.00 0.00 0.00 40 1019.4
20260502201021 15 0.0 0.0 0.00 0.00 0.00 37 1019.4
20260502195020 15 0.0 0.0 0.00 0.00 0.00 36 1019.1
20260502193020 15 0.0 0.0 0.00 0.00 0.00 36 1018.9
20260502191020 15 0.0 0.0 0.00 0.00 0.00 36 1019.0
20260502185019 16 0.0 0.0 0.00 0.00 0.00 35 1016.6
20260502183019 16 0.0 0.0 0.00 0.00 0.00 34 1018.7
20260502181019 20 0.0 0.0 0.00 0.00 0.00 25 1018.8